EAL706 KCMH-KBOS

Flight info

Callsign EAL706
Flight time 1h 21m
Altitude 35000
Route OWEBO HLG SLT J190 RKA PONCT JFUND2
Aircraft A306/H-SDE3FGHIRWY/LB1

Departure

Time 2026-05-09 02:14
Airport John Glenn Columbus International Airport (KCMH)

Arrival

Time 2026-05-09 03:36
Airport Boston Logan International Airport (KBOS)
Time Latitude Longitude Altitude Speed Heading
2026-05-09 02:07 39.99969 -82.88033 827 ft 0 kts 122°
2026-05-09 02:08 39.99967 -82.88027 827 ft 6 kts 111°
2026-05-09 02:08 39.99991 -82.87956 826 ft 11 kts 22°
2026-05-09 02:08 40.00037 -82.87942 823 ft 0 kts 10°
2026-05-09 02:13 40.00097 -82.87939 823 ft 12 kts 352°
2026-05-09 02:13 40.00162 -82.88016 823 ft 14 kts 289°
2026-05-09 02:13 40.00168 -82.88067 826 ft 1 kts 275°
2026-05-09 02:13 40.00181 -82.88300 830 ft 54 kts 275°
2026-05-09 02:14 40.00229 -82.89125 824 ft 124 kts 274°
2026-05-09 02:14 40.00312 -82.90513 1029 ft 176 kts 275°
2026-05-09 02:14 40.00368 -82.92176 1849 ft 185 kts 271°
2026-05-09 02:14 40.00383 -82.93823 2876 ft 182 kts 268°
2026-05-09 02:15 40.00378 -82.95472 3456 ft 183 kts 268°
2026-05-09 02:15 40.00606 -82.97147 3902 ft 201 kts 287°
2026-05-09 02:15 40.01324 -82.98757 3986 ft 208 kts 304°
2026-05-09 02:15 40.02505 -83.00124 4002 ft 254 kts 322°
2026-05-09 02:16 40.04197 -83.01125 4644 ft 265 kts 339°
2026-05-09 02:16 40.06007 -83.01491 4975 ft 265 kts 354°
2026-05-09 02:16 40.07866 -83.01197 5091 ft 273 kts
2026-05-09 02:16 40.09724 -83.00493 5477 ft 290 kts 21°
2026-05-09 02:17 40.11294 -82.98779 5974 ft 302 kts 55°
2026-05-09 02:17 40.12042 -82.96195 6449 ft 312 kts 85°
2026-05-09 02:17 40.12072 -82.93391 7452 ft 307 kts 97°
2026-05-09 02:17 40.11838 -82.90605 8424 ft 311 kts 101°
2026-05-09 02:18 40.11539 -82.87773 9294 ft 318 kts 100°
2026-05-09 02:18 40.11272 -82.84865 10129 ft 326 kts 98°
2026-05-09 02:18 40.11064 -82.81837 10596 ft 345 kts 95°
2026-05-09 02:18 40.10912 -82.78611 10927 ft 366 kts 94°
2026-05-09 02:19 40.10804 -82.75209 11243 ft 384 kts 92°
2026-05-09 02:19 40.10718 -82.71654 11549 ft 400 kts 92°
2026-05-09 02:19 40.10639 -82.67978 12037 ft 409 kts 92°
2026-05-09 02:19 40.10557 -82.64244 12658 ft 413 kts 91°
2026-05-09 02:20 40.10467 -82.60478 13308 ft 417 kts 91°
2026-05-09 02:20 40.10371 -82.56676 13955 ft 420 kts 91°
2026-05-09 02:20 40.10270 -82.52842 14514 ft 425 kts 91°
2026-05-09 02:20 40.10162 -82.48967 15051 ft 430 kts 92°
2026-05-09 02:21 40.10052 -82.45046 15604 ft 434 kts 92°
2026-05-09 02:21 40.09940 -82.41087 16175 ft 438 kts 92°
2026-05-09 02:21 40.09825 -82.37088 16733 ft 443 kts 92°
2026-05-09 02:21 40.09708 -82.33054 17318 ft 447 kts 92°
2026-05-09 02:22 40.09589 -82.28986 17839 ft 451 kts 92°
2026-05-09 02:22 40.09465 -82.24835 18360 ft 456 kts 92°
2026-05-09 02:22 40.09342 -82.20722 18772 ft 460 kts 92°
2026-05-09 02:22 40.09216 -82.16572 19183 ft 465 kts 92°
2026-05-09 02:23 40.09086 -82.12336 19603 ft 469 kts 92°
2026-05-09 02:23 40.08952 -82.08060 20030 ft 474 kts 92°
2026-05-09 02:23 40.08817 -82.03745 20423 ft 478 kts 92°
2026-05-09 02:23 40.08677 -81.99387 20806 ft 482 kts 92°
2026-05-09 02:24 40.08534 -81.94964 21206 ft 486 kts 92°
2026-05-09 02:24 40.08391 -81.90564 21599 ft 490 kts 92°
2026-05-09 02:24 40.08244 -81.86092 21982 ft 494 kts 92°
2026-05-09 02:24 40.08095 -81.81592 22358 ft 498 kts 92°
2026-05-09 02:25 40.07942 -81.77056 22710 ft 502 kts 92°
2026-05-09 02:25 40.07902 -81.72479 23074 ft 506 kts 86°
2026-05-09 02:25 40.08325 -81.67906 23441 ft 509 kts 79°
2026-05-09 02:25 40.08729 -81.64828 23641 ft 511 kts 78°
2026-05-09 02:26 40.09417 -81.60263 23915 ft 514 kts 76°
2026-05-09 02:26 40.10168 -81.55690 24231 ft 516 kts 76°
2026-05-09 02:26 40.10942 -81.51102 24533 ft 518 kts 75°
2026-05-09 02:26 40.11721 -81.46496 24872 ft 520 kts 75°
2026-05-09 02:27 40.12494 -81.41876 25172 ft 522 kts 76°
2026-05-09 02:27 40.13264 -81.37223 25440 ft 525 kts 76°
2026-05-09 02:27 40.14027 -81.32549 25737 ft 527 kts 76°
2026-05-09 02:27 40.14789 -81.27849 26059 ft 529 kts 76°
2026-05-09 02:28 40.15550 -81.23126 26256 ft 533 kts 76°
2026-05-09 02:28 40.16311 -81.18377 26508 ft 535 kts 76°
2026-05-09 02:28 40.17075 -81.13602 26771 ft 537 kts 76°
2026-05-09 02:28 40.17839 -81.08814 27030 ft 539 kts 76°
2026-05-09 02:29 40.18605 -81.04003 27282 ft 541 kts 76°
2026-05-09 02:29 40.19370 -80.99182 27528 ft 543 kts 76°
2026-05-09 02:29 40.20138 -80.94334 27749 ft 545 kts 76°
2026-05-09 02:29 40.20905 -80.89481 27979 ft 547 kts 76°
2026-05-09 02:30 40.21674 -80.84600 28280 ft 547 kts 76°
2026-05-09 02:30 40.22440 -80.79723 28589 ft 547 kts 76°
2026-05-09 02:30 40.23203 -80.74850 28888 ft 547 kts 76°
2026-05-09 02:30 40.23965 -80.69975 29230 ft 547 kts 76°
2026-05-09 02:31 40.24723 -80.65103 29576 ft 546 kts 76°
2026-05-09 02:31 40.25540 -80.60262 29906 ft 543 kts 71°
2026-05-09 02:31 40.26894 -80.55682 30184 ft 537 kts 59°
2026-05-09 02:31 40.28732 -80.51448 30435 ft 534 kts 53°
2026-05-09 02:32 40.30687 -80.47320 30651 ft 533 kts 51°
2026-05-09 02:32 40.32712 -80.43245 30893 ft 533 kts 50°
2026-05-09 02:32 40.34766 -80.39193 31058 ft 535 kts 50°
2026-05-09 02:32 40.36833 -80.35131 31288 ft 536 kts 50°
2026-05-09 02:33 40.38898 -80.31052 31531 ft 537 kts 50°
2026-05-09 02:33 40.40955 -80.26965 31752 ft 538 kts 50°
2026-05-09 02:33 40.43016 -80.22844 31973 ft 540 kts 50°
2026-05-09 02:33 40.45072 -80.18716 32203 ft 541 kts 50°
2026-05-09 02:34 40.47125 -80.14580 32420 ft 542 kts 50°
2026-05-09 02:34 40.49157 -80.10478 32696 ft 543 kts 50°
2026-05-09 02:34 40.51217 -80.06312 32888 ft 545 kts 50°
2026-05-09 02:34 40.53282 -80.02133 33122 ft 546 kts 50°
2026-05-09 02:35 40.55347 -79.97946 33385 ft 546 kts 50°
2026-05-09 02:35 40.57413 -79.93753 33616 ft 547 kts 50°
2026-05-09 02:35 40.59481 -79.89553 33873 ft 548 kts 50°
2026-05-09 02:35 40.61555 -79.85333 34057 ft 549 kts 50°
2026-05-09 02:36 40.63627 -79.81113 34283 ft 549 kts 50°
2026-05-09 02:36 40.65696 -79.76891 34523 ft 549 kts 50°
2026-05-09 02:36 40.67762 -79.72669 34794 ft 548 kts 50°
2026-05-09 02:36 40.69828 -79.68441 34933 ft 548 kts 50°
2026-05-09 02:37 40.71904 -79.64180 34964 ft 542 kts 50°
2026-05-09 02:37 40.75917 -79.55928 34961 ft 536 kts 50°
2026-05-09 02:38 40.79949 -79.47644 34957 ft 536 kts 50°
2026-05-09 02:38 40.83970 -79.39354 34953 ft 536 kts 50°
2026-05-09 02:39 40.87983 -79.31052 34955 ft 536 kts 51°
2026-05-09 02:39 40.91979 -79.22757 34953 ft 534 kts 51°
2026-05-09 02:40 40.95969 -79.14459 34948 ft 534 kts 51°
2026-05-09 02:40 40.99955 -79.06149 34946 ft 534 kts 51°
2026-05-09 02:41 41.03936 -78.97829 34981 ft 535 kts 51°
2026-05-09 02:41 41.07899 -78.89513 34939 ft 532 kts 51°
2026-05-09 02:42 41.11841 -78.81220 34936 ft 531 kts 51°
2026-05-09 02:42 41.15776 -78.72925 34964 ft 531 kts 51°
2026-05-09 02:43 41.19708 -78.64614 34957 ft 532 kts 51°
2026-05-09 02:43 41.23639 -78.56278 34947 ft 530 kts 51°
2026-05-09 02:44 41.27527 -78.48000 34950 ft 526 kts 51°
2026-05-09 02:44 41.31402 -78.39744 34945 ft 526 kts 51°
2026-05-09 02:45 41.35276 -78.31472 34949 ft 527 kts 51°
2026-05-09 02:45 41.39141 -78.23194 35000 ft 527 kts 50°
2026-05-09 02:46 41.42978 -78.14937 34954 ft 521 kts 50°
2026-05-09 02:46 41.46787 -78.06730 34954 ft 521 kts 50°
2026-05-09 02:47 41.50586 -77.98504 34951 ft 523 kts 52°
2026-05-09 02:47 41.53914 -77.89800 34951 ft 527 kts 57°
2026-05-09 02:48 41.57104 -77.81045 34958 ft 529 kts 57°
2026-05-09 02:48 41.60283 -77.72180 34953 ft 530 kts 57°
2026-05-09 02:49 41.63463 -77.63294 34946 ft 530 kts 57°
2026-05-09 02:49 41.66644 -77.54402 34945 ft 529 kts 57°
2026-05-09 02:50 41.69812 -77.45530 34942 ft 529 kts 57°
2026-05-09 02:50 41.72977 -77.36646 34946 ft 529 kts 57°
2026-05-09 02:51 41.76136 -77.27749 34939 ft 529 kts 58°
2026-05-09 02:51 41.79290 -77.18835 34934 ft 529 kts 58°
2026-05-09 02:52 41.82424 -77.09949 34934 ft 527 kts 58°
2026-05-09 02:52 41.85550 -77.01060 34932 ft 527 kts 58°
2026-05-09 02:53 41.88667 -76.92168 34944 ft 527 kts 58°
2026-05-09 02:53 41.91777 -76.83267 34929 ft 526 kts 58°
2026-05-09 02:54 41.94873 -76.74372 34934 ft 525 kts 58°
2026-05-09 02:54 41.97957 -76.65488 34932 ft 525 kts 59°
2026-05-09 02:55 42.01034 -76.56597 34934 ft 525 kts 59°
2026-05-09 02:55 42.04107 -76.47693 34936 ft 525 kts 59°
2026-05-09 02:56 42.07174 -76.38774 34935 ft 525 kts 59°
2026-05-09 02:56 42.10231 -76.29856 34936 ft 524 kts 59°
2026-05-09 02:57 42.13276 -76.20940 34939 ft 524 kts 59°
2026-05-09 02:57 42.16326 -76.12003 34933 ft 524 kts 59°
2026-05-09 02:58 42.19415 -76.03118 34959 ft 523 kts 59°
2026-05-09 02:58 42.22513 -75.94248 34951 ft 522 kts 59°
2026-05-09 02:59 42.25580 -75.85433 34950 ft 522 kts 59°
2026-05-09 02:59 42.28655 -75.76545 34948 ft 522 kts 59°
2026-05-09 03:00 42.31717 -75.67656 34952 ft 522 kts 59°
2026-05-09 03:00 42.34772 -75.58760 34966 ft 521 kts 59°
2026-05-09 03:01 42.37816 -75.49868 34967 ft 521 kts 59°
2026-05-09 03:01 42.40850 -75.40979 34963 ft 520 kts 60°
2026-05-09 03:02 42.43876 -75.32087 34971 ft 520 kts 60°
2026-05-09 03:02 42.46526 -75.22941 34969 ft 529 kts 77°
2026-05-09 03:03 42.47223 -75.12985 34972 ft 532 kts 84°
2026-05-09 03:03 42.47684 -75.02977 34973 ft 533 kts 84°
2026-05-09 03:04 42.48151 -74.92971 34977 ft 532 kts 84°
2026-05-09 03:04 42.48617 -74.82968 34979 ft 532 kts 84°
2026-05-09 03:05 42.49078 -74.72963 34979 ft 532 kts 85°
2026-05-09 03:05 42.49529 -74.62957 34977 ft 532 kts 85°
2026-05-09 03:06 42.49972 -74.52948 34982 ft 532 kts 85°
2026-05-09 03:06 42.50407 -74.42941 34977 ft 532 kts 85°
2026-05-09 03:07 42.50834 -74.32927 34976 ft 532 kts 85°
2026-05-09 03:07 42.51252 -74.22918 34979 ft 532 kts 85°
2026-05-09 03:08 42.51659 -74.12917 34979 ft 532 kts 85°
2026-05-09 03:08 42.52059 -74.02905 34984 ft 531 kts 85°
2026-05-09 03:09 42.52449 -73.92921 34989 ft 530 kts 85°
2026-05-09 03:09 42.52830 -73.82936 34987 ft 530 kts 85°
2026-05-09 03:10 42.53140 -73.74639 34982 ft 530 kts 85°
2026-05-09 03:10 42.53506 -73.64650 34969 ft 531 kts 85°
2026-05-09 03:11 42.53863 -73.54653 34971 ft 530 kts 86°
2026-05-09 03:11 42.54211 -73.44669 34982 ft 530 kts 86°
2026-05-09 03:12 42.54550 -73.34673 34987 ft 532 kts 86°
2026-05-09 03:12 42.54885 -73.24596 34969 ft 536 kts 86°
2026-05-09 03:13 42.55370 -73.09460 34977 ft 536 kts 86°
2026-05-09 03:13 42.55681 -72.99363 34993 ft 536 kts 86°
2026-05-09 03:14 42.55983 -72.89269 35006 ft 535 kts 86°
2026-05-09 03:14 42.56130 -72.84238 34586 ft 533 kts 86°
2026-05-09 03:14 42.56276 -72.79216 33787 ft 534 kts 86°
2026-05-09 03:15 42.56420 -72.74181 32840 ft 536 kts 86°
2026-05-09 03:15 42.56562 -72.69117 31843 ft 538 kts 86°
2026-05-09 03:15 42.56701 -72.64044 30945 ft 539 kts 86°
2026-05-09 03:15 42.56838 -72.58971 30274 ft 535 kts 85°
2026-05-09 03:16 42.56971 -72.53963 29549 ft 529 kts 85°
2026-05-09 03:16 42.57101 -72.49012 28971 ft 521 kts 85°
2026-05-09 03:16 42.57226 -72.44187 28297 ft 516 kts 86°
2026-05-09 03:16 42.57348 -72.39362 27708 ft 509 kts 86°
2026-05-09 03:17 42.57468 -72.34587 27143 ft 502 kts 86°
2026-05-09 03:17 42.57584 -72.29881 26507 ft 497 kts 86°
2026-05-09 03:17 42.57697 -72.25224 25946 ft 491 kts 86°
2026-05-09 03:17 42.57806 -72.20623 25363 ft 485 kts 86°
2026-05-09 03:18 42.57913 -72.16078 24807 ft 479 kts 86°
2026-05-09 03:18 42.58015 -72.11575 24230 ft 474 kts 86°
2026-05-09 03:18 42.58116 -72.07138 23748 ft 468 kts 86°
2026-05-09 03:18 42.58214 -72.02743 23128 ft 464 kts 87°
2026-05-09 03:19 42.58309 -71.98389 22530 ft 459 kts 87°
2026-05-09 03:19 42.58402 -71.94072 21862 ft 456 kts 87°
2026-05-09 03:19 42.58492 -71.89807 21365 ft 450 kts 87°
2026-05-09 03:19 42.58579 -71.85576 20699 ft 448 kts 87°
2026-05-09 03:20 42.58495 -71.81373 20179 ft 444 kts 97°
2026-05-09 03:20 42.57947 -71.77271 19596 ft 441 kts 102°
2026-05-09 03:20 42.57296 -71.73218 19040 ft 437 kts 103°
2026-05-09 03:20 42.56645 -71.69213 18489 ft 434 kts 103°
2026-05-09 03:21 42.56002 -71.65232 17912 ft 430 kts 103°
2026-05-09 03:21 42.55369 -71.61295 17463 ft 422 kts 103°
2026-05-09 03:21 42.54694 -71.57485 16986 ft 410 kts 105°
2026-05-09 03:21 42.53941 -71.53803 16157 ft 402 kts 107°
2026-05-09 03:22 42.53182 -71.50192 15307 ft 395 kts 107°
2026-05-09 03:22 42.52437 -71.46645 14493 ft 388 kts 107°
2026-05-09 03:22 42.51708 -71.43166 13680 ft 381 kts 107°
2026-05-09 03:22 42.50992 -71.39743 12786 ft 374 kts 107°
2026-05-09 03:23 42.50294 -71.36378 11911 ft 368 kts 106°
2026-05-09 03:23 42.49628 -71.33068 11069 ft 362 kts 106°
2026-05-09 03:23 42.48985 -71.29844 10246 ft 356 kts 106°
2026-05-09 03:23 42.48344 -71.26635 9570 ft 347 kts 106°
2026-05-09 03:24 42.47730 -71.23561 9181 ft 329 kts 106°
2026-05-09 03:24 42.47145 -71.20637 8736 ft 316 kts 106°
2026-05-09 03:24 42.46575 -71.17799 8385 ft 308 kts 106°
2026-05-09 03:24 42.46106 -71.15057 8184 ft 291 kts 99°
2026-05-09 03:25 42.45832 -71.12421 7987 ft 275 kts 97°
2026-05-09 03:25 42.45601 -71.09874 7784 ft 272 kts 97°
2026-05-09 03:25 42.45374 -71.07331 7560 ft 272 kts 97°
2026-05-09 03:25 42.45146 -71.04798 7344 ft 270 kts 97°
2026-05-09 03:26 42.44888 -71.02286 7128 ft 269 kts 99°
2026-05-09 03:26 42.44576 -70.99796 6981 ft 268 kts 100°
2026-05-09 03:26 42.44261 -70.97317 6883 ft 267 kts 97°
2026-05-09 03:26 42.44297 -70.94830 6777 ft 264 kts 80°
2026-05-09 03:27 42.44637 -70.92389 6670 ft 263 kts 76°
2026-05-09 03:27 42.45021 -70.89968 6573 ft 263 kts 76°
2026-05-09 03:27 42.45404 -70.87553 6419 ft 263 kts 76°
2026-05-09 03:27 42.45784 -70.85134 6092 ft 263 kts 77°
2026-05-09 03:28 42.46159 -70.82711 5749 ft 263 kts 77°
2026-05-09 03:28 42.46533 -70.80284 5412 ft 263 kts 77°
2026-05-09 03:28 42.46899 -70.77857 5079 ft 263 kts 77°
2026-05-09 03:28 42.47256 -70.75441 4767 ft 259 kts 78°
2026-05-09 03:29 42.47590 -70.73096 4445 ft 248 kts 81°
2026-05-09 03:29 42.47450 -70.70831 4080 ft 240 kts 111°
2026-05-09 03:29 42.46519 -70.69055 3753 ft 229 kts 144°
2026-05-09 03:29 42.45114 -70.68151 3501 ft 223 kts 166°
2026-05-09 03:30 42.43618 -70.67621 3247 ft 221 kts 171°
2026-05-09 03:30 42.42109 -70.67353 3015 ft 217 kts 188°
2026-05-09 03:30 42.40813 -70.68186 2973 ft 201 kts 231°
2026-05-09 03:30 42.40396 -70.69817 2962 ft 178 kts 274°
2026-05-09 03:31 42.40526 -70.71456 3034 ft 173 kts 271°
2026-05-09 03:31 42.40501 -70.73076 3340 ft 172 kts 265°
2026-05-09 03:31 42.40294 -70.74678 3355 ft 173 kts 257°
2026-05-09 03:31 42.39995 -70.76268 3245 ft 175 kts 257°
2026-05-09 03:32 42.39709 -70.77866 3032 ft 175 kts 257°
2026-05-09 03:32 42.39430 -70.79468 2965 ft 175 kts 258°
2026-05-09 03:32 42.39154 -70.81074 2752 ft 175 kts 257°
2026-05-09 03:32 42.38872 -70.82666 2498 ft 174 kts 257°
2026-05-09 03:33 42.38590 -70.84253 2258 ft 174 kts 257°
2026-05-09 03:33 42.38310 -70.85840 2016 ft 172 kts 257°
2026-05-09 03:33 42.38032 -70.87414 1782 ft 172 kts 257°
2026-05-09 03:33 42.37755 -70.88982 1569 ft 170 kts 257°
2026-05-09 03:34 42.37483 -70.90514 1331 ft 165 kts 257°
2026-05-09 03:34 42.37216 -70.92028 1092 ft 167 kts 257°
2026-05-09 03:34 42.36945 -70.93560 853 ft 168 kts 257°
2026-05-09 03:34 42.36688 -70.95037 585 ft 153 kts 257°
2026-05-09 03:35 42.36451 -70.96349 412 ft 137 kts 257°
2026-05-09 03:35 42.36237 -70.97577 229 ft 133 kts 257°
2026-05-09 03:35 42.36019 -70.98764 66 ft 130 kts 258°
2026-05-09 03:35 42.35824 -70.99885 32 ft 107 kts 257°
2026-05-09 03:36 42.35699 -71.00616 31 ft 60 kts 257°
2026-05-09 03:36 42.35635 -71.01055 31 ft 36 kts 275°
2026-05-09 03:36 42.35713 -71.01256 31 ft 20 kts 304°
2026-05-09 03:36 42.35771 -71.01413 31 ft 18 kts 289°
2026-05-09 03:37 42.35813 -71.01544 31 ft 11 kts 313°
2026-05-09 03:37 42.35871 -71.01588 31 ft 9 kts 310°
2026-05-09 03:37 42.35895 -71.01658 31 ft 8 kts 288°
2026-05-09 03:37 42.35906 -71.01719 31 ft 6 kts 282°
2026-05-09 03:38 42.35912 -71.01762 31 ft 7 kts 280°
2026-05-09 03:38 42.35940 -71.01870 31 ft 17 kts 297°
2026-05-09 03:38 42.36005 -71.02022 30 ft 19 kts 300°
2026-05-09 03:38 42.36073 -71.02169 31 ft 18 kts 302°
2026-05-09 03:39 42.36154 -71.02287 31 ft 16 kts 319°
2026-05-09 03:39 42.36181 -71.02394 31 ft 9 kts 281°
2026-05-09 03:39 42.36185 -71.02427 31 ft 1 kts 280°
2026-05-09 03:39 42.36186 -71.02432 31 ft 0 kts 280°